Location: Helds Island Access
(38.5526°N, 91.5997°W)
Time: 19:14:52
(UTC-05:00)

Daily predictions for brighter satellites

Satellite Brightness Start Highest point End
(mag) Time Altitude Azimuth Time Altitude Azimuth Time Altitude Azimuth
Cosmos 2218 Rocket 4.1 18:41:41 10° SSE 18:47:37 53° E 18:53:35 10° NNE
Aureole 1 Rocket 4.0 18:42:28 10° S 18:49:28 67° ESE 18:54:50 10° NNE
Lacrosse 5 rocket 3.6 18:47:26 10° W 18:51:03 23° NW 18:54:33 10° NNE
SL-8 R/B 4.4 18:46:47 10° SSW 18:51:15 40° SE 18:55:45 10° ENE
CZ-4 R/B 4.5 18:48:37 10° SSE 18:52:40 59° ENE 18:56:45 10° N
NOSS 3-4 (A) 4.1 18:45:43 10° NW 18:52:51 78° WSW 19:00:27 10° SSE
NOSS 3-4 (C) 4.1 18:45:49 10° NW 18:52:57 79° WSW 19:00:34 10° SSE
Cosmos 1408 Rocket 3.5 18:48:38 10° N 18:53:04 71° E 18:57:31 10° SSE
Meteor 2-15 Rocket 4.5 18:48:00 10° N 18:54:03 64° E 19:00:06 10° SSE
Meteor 2-21 4.5 18:48:21 10° S 18:54:26 89° E 19:00:31 10° N
EO 1 Del DPAF 3.2 18:51:05 10° NNE 18:54:54 65° E 18:58:42 10° S
USA 267 4.2 18:51:39 10° ENE 18:57:10 28° SE 19:02:38 10° S
Cosmos 1328 3.7 18:54:27 10° N 18:58:24 67° E 19:02:19 10° SSE
Atlas Centaur 2 3.1 18:54:25 10° SW 18:58:39 32° S 19:03:53 10° ESE
DELTA 2 R/B (1) 3.7 18:54:47 10° W 19:00:23 81° N 19:05:56 10° E
Cosmos 1727 Rocket 4.3 18:54:50 10° N 19:00:55 45° ENE 19:06:56 10° SSE
MONITOR-E 4.3 19:00:57 10° SSE 19:03:57 49° ENE 19:06:56 10° N
Meteor 1-16 Rocket 4.1 18:59:41 10° S 19:04:59 90° W 19:10:20 10° N
BREEZE M DEB (TANK) 4.2 19:02:50 10° WNW 19:07:34 20° NNW 19:10:01 10° NE
Cosmos 1484 Rocket 4.3 19:04:06 10° S 19:07:38 40° W 19:11:10 10° NNW
YAOGAN 1 2.7 19:03:50 10° S 19:08:09 81° WSW 19:12:30 10° NNW
ALOS 2.7 19:05:19 10° SE 19:09:38 39° ENE 19:13:59 10° N
CZ-4C R/B 3.7 19:08:40 10° SE 19:11:02 13° ESE 19:12:17 12° E
FENGYUN 3A 3.9 19:09:13 10° SE 19:14:18 45° ENE 19:19:27 10° N
GP-B 3.0 19:10:24 10° N 19:14:51 75° E 19:19:16 10° S
CZ-4 R/B 2.9 19:11:34 10° S 19:15:35 43° W 19:19:37 10° NNW
Abrixas rocket 3.8 19:12:42 10° W 19:15:38 29° NNW 19:18:34 10° NE
Cosmos 1703 3.6 19:12:51 10° N 19:16:38 43° E 19:20:21 10° SSE
SL-08 R/B 4.4 19:10:55 10° S 19:17:07 79° E 19:23:15 10° N
MOS 1 4.3 19:12:12 10° SSE 19:17:51 88° ENE 19:23:33 10° NNW
Cosmos 1400 Rocket 2.7 19:21:50 10° N 19:25:53 70° E 19:29:51 10° SSE
Tiangong 1 1.8 19:25:24 10° W 19:27:58 39° SSW 19:29:46 16° SE
ASTRO E2 4.2 19:24:55 10° SW 19:28:16 26° S 19:30:31 16° SE
Cosmos 2219 Rocket 3.8 19:25:34 10° NNE 19:28:30 14° NE 19:29:16 14° ENE
Cosmos 1624 Rocket 4.4 19:25:25 10° NNW 19:30:36 69° WSW 19:35:48 10° S
SKYMED 2 4.2 19:28:12 10° N 19:32:29 59° WNW 19:36:45 10° SSW
SOZ 4.5 19:30:16 10° SW 19:32:45 76° SE 19:33:34 33° ENE
Thor Agena Rocket 3.7 19:28:08 10° NNE 19:33:05 49° E 19:37:58 10° S
GRACE-2 3.5 19:32:24 10° S 19:34:58 74° E 19:37:33 10° N
GRACE-1 3.5 19:34:14 10° S 19:36:48 84° E 19:39:23 10° N
Cosmos 1908 3.3 19:33:54 10° S 19:37:42 52° E 19:41:31 10° NNE
SL-16 R/B 3.0 19:32:38 10° NNW 19:38:10 55° WSW 19:43:40 10° S
Cosmos 1743 Rocket 3.8 19:35:15 10° NNW 19:39:36 73° W 19:43:59 10° S
Iridium 4 Rocket 3.8 19:34:54 10° SSE 19:40:02 49° E 19:45:34 10° NNE
Cosmos 1420 Rocket 4.5 19:36:15 10° N 19:41:15 39° ENE 19:44:26 20° SE
Cosmos 2151 2.9 19:38:19 10° N 19:42:37 88° W 19:46:52 10° S
Cosmos 1842 Rocket 4.1 19:40:53 10° SSW 19:45:18 63° W 19:49:45 10° N
H-2A R/B 3.0 19:43:01 19° SE 19:45:27 43° ENE 19:49:11 10° N
Delta 2 Rocket 3.5 19:43:33 10° WSW 19:46:57 41° S 19:47:45 34° SE
Cosmos 44 3.8 19:44:08 10° S 19:47:53 29° ESE 19:47:53 29° ESE
Resurs 01 Rocket 3.5 19:49:59 15° NE 19:49:59 15° NE 19:51:17 10° NNE
GENESIS II 4.1 19:45:25 10° SSW 19:49:22 76° ESE 19:51:47 23° NE
APEX 4.1 19:49:11 10° S 19:51:17 26° SSE 19:51:17 26° SSE
FREGAT/IRIS 2.5 19:56:03 68° NE 19:56:03 68° NE 19:58:53 10° N
Cosmos 2237 Rocket 4.1 19:53:51 10° NNE 19:55:40 13° NE 19:55:40 13° NE
Cosmos 2221 2.3 19:52:31 10° S 19:56:48 74° E 20:01:08 10° N
ISS -1.1 19:55:03 10° W 19:57:21 18° SW 19:59:39 10° S
Cosmos 44 Rocket 3.6 19:54:06 10° S 19:58:28 39° ESE 19:58:42 39° ESE
Cosmos 1500 Rocket 4.3 19:57:44 10° NNW 20:01:58 52° W 20:06:10 10° S
Cosmos 1535 Rocket 4.4 19:57:35 10° SSE 20:03:34 56° E 20:09:31 10° NNE
Geosat FO 4.4 20:06:01 64° SE 20:06:29 80° ENE 20:10:07 10° NNW
Cosmos 1315 Rocket 2.9 20:02:45 10° NNW 20:06:50 76° W 20:10:54 10° S
Cosmos 158 Rocket 3.8 20:02:42 10° SSW 20:07:41 77° ESE 20:12:49 10° NNE
CSL-04 DEB 4.4 20:08:24 58° ESE 20:08:45 61° ENE 20:12:48 10° N
Cosmos 921 Rocket 2.9 20:05:03 10° NNW 20:09:33 89° E 20:11:50 28° SSE
BREEZE-M DEB (TANK) 3.3 20:08:17 10° WNW 20:09:32 24° WSW 20:09:32 24° WSW
Cosmos 1269 Rocket 3.9 20:09:01 10° S 20:14:12 62° ESE 20:16:59 27° NNE
COSMOS 2428 2.8 20:10:03 10° NNW 20:15:36 52° ENE 20:16:20 48° E
Cosmos 2333 Rocket 3.3 20:14:06 10° N 20:18:01 28° NE 20:18:01 28° NE
Cosmos 2098 Rocket 3.0 20:16:39 10° S 20:20:36 87° W 20:25:44 10° N
RESURS DK-1 2.7 20:17:56 10° NNW 20:22:02 62° WSW 20:23:04 45° SSW
Cosmos 2360 Rocket 2.7 20:16:53 10° NNW 20:22:27 60° WSW 20:28:00 10° S
FengYun 1-2 T 4.3 20:16:57 10° S 20:22:28 75° WSW 20:27:58 10° NNW
Cosmos 2219 3.1 20:19:53 10° SSW 20:25:35 70° ESE 20:27:40 40° NE
MOS 1-B Rocket 3.8 20:25:31 56° ESE 20:26:15 61° ENE 20:32:02 10° N
SL-24 R/B - RUBIN 2 3.8 20:25:32 10° NW 20:30:18 66° WSW 20:30:52 59° SSW
SJ-6B 3.3 20:30:53 55° WNW 20:30:53 55° WNW 20:34:08 10° NNW
SL-8 R/B 4.3 20:29:05 10° W 20:33:45 49° NNW 20:34:26 45° N
Cosmos 1821 Rocket 4.1 20:29:18 10° SSW 20:35:25 72° W 20:41:38 10° N
Cosmos 1452 Rocket 4.4 20:30:56 10° NNW 20:35:57 46° WSW 20:40:42 11° S
Cosmos 1805 Rocket 3.9 20:35:47 10° NNW 20:39:44 61° WNW 20:39:44 61° WNW
USA 267 3.3 20:37:01 30° NE 20:40:28 73° NW 20:46:58 10° SW
Cosmos 1934 Rocket 4.0 20:38:20 10° S 20:44:40 81° W 20:51:05 10° N
DELTA 2 R/B (1) 3.5 20:41:21 10° W 20:46:42 80° WSW 20:46:42 80° WSW
Atlas Centaur 2 3.2 20:42:16 10° WSW 20:47:12 35° S 20:47:12 35° S
Gbstr 26 Del rocket 4.4 20:48:43 10° NW 20:53:04 44° N 20:53:04 44° N
CZ-4C R/B 2.5 20:53:24 10° SW 20:57:35 58° WSW 20:57:35 58° WSW
Cosmos 2123 Rocket 4.1 20:58:51 10° NNW 21:05:04 72° W 21:05:32 68° SW
BREEZE-M DEB (TANK) 3.9 21:01:03 10° WNW 21:11:54 58° NNW 21:11:54 58° NNW
Cosmos 2219 Rocket 3.2 21:07:34 10° NNW 21:11:01 39° NNW 21:11:01 39° NNW
USA 234 4.0 21:15:23 42° N 21:15:23 42° N 21:20:21 10° NW
Resurs 01 Rocket 4.3 21:27:35 15° NW 21:27:35 15° NW 21:28:28 10° NNW
Centaur D AC-28 4.4 21:28:59 10° SW 22:06:24 10° E 21:30:49 24° SSW
Centaur D AC-28 4.4 21:28:59 10° SW 22:06:27 10° E 21:30:49 24° SSW
Centaur D AC-28 4.4 21:28:59 10° SW 22:06:25 10° E 21:30:49 24° SSW
Centaur D AC-28 4.4 21:29:00 10° SW 22:06:26 10° E 21:30:49 24° SSW
Centaur D AC-28 4.4 21:28:59 10° SW 22:06:26 10° E 21:30:50 24° SSW
Centaur D AC-28 4.4 21:28:59 10° SW 22:06:26 10° E 21:30:49 24° SSW
Centaur D AC-28 4.4 21:28:59 10° SW 22:06:25 10° E 21:30:48 24° SSW
Cosmos 2237 Rocket 4.2 21:35:45 10° NNW 21:37:30 21° NNW 21:37:30 21° NNW
Cosmos 2333 Rocket 4.4 21:58:08 10° NW 22:00:04 20° NW 22:00:04 20° NW
